Regional Weather Roundup
Issued by NWS

Home | Current Version | Previous Version | Graphics & Text | Print | Product List | Glossary On
Versions: 1 2 3 4 5 6 7 8 9 10 11 12 13 14 15 16 17 18 19 20 21 22 23 24 25 26 27 28 29 30 31 32 33 34 35 36 37 38 39 40 41 42 43 44 45 46 47 48 49 50
000
ASUS45 KCYS 270110
RWRWY

WYOMING REGIONAL WEATHER ROUNDUP
NATIONAL WEATHER SERVICE CHEYENNE WY
600 PM MST THU FEB 26 2015

NOTE:  "FAIR" INDICATES FEW OR NO CLOUDS BELOW 12,000 FEET
WITH NO SIGNIFICANT WEATHER AND/OR OBSTRUCTIONS TO VISIBILITY.

WYZ001-270200-
YELLOWSTONE NATIONAL PARK

CITY           SKY/WX    TMP DP  RH WIND       PRES   REMARKS
LK YELLOWSTONE   N/A     16  -3  43 VRB3      29.88F
W YELLOWSTONE  NOT AVBL

$$
WYZ002>013-054>058-071-098>099-270200-
NORTHERN WYOMING

CITY           SKY/WX    TMP DP  RH WIND       PRES   REMARKS
JACKSON        CLEAR     25  14  63 CALM      29.88S
CODY           CLOUDY     9   5  85 N7        30.11F WCI  -3
GREYBULL       CLOUDY    19   5  54 W7        30.19R WCI  10
WORLAND        LGT SNOW  17  11  77 SE3       30.17S
SHERIDAN       CLOUDY     6  -2  69 SE5       30.25F WCI  -3
BUFFALO        FAIR       0  -4  83 W7        30.17F WCI -13
GILLETTE       FAIR       3  -7  63 CALM      30.24S
HULETT         FAIR       3  -6  66 E6        30.28R WCI  -8
NEWCASTLE      FAIR       9  -6  52 SW6       30.26R WCI  -1

$$
WYZ014>020-022>026-101>103-270200-
CENTRAL WYOMING

CITY           SKY/WX    TMP DP  RH WIND       PRES   REMARKS
BIG PINEY      CLOUDY    22  13  68 S9        29.89R WCI  12
PINEDALE       LGT SNOW  21  16  79 E5        29.89R WCI  15
DUBOIS         CLOUDY     9   3  78 SE10      29.95S WCI  -6
LANDER         CLOUDY    11   6  81 NE5       30.07R HAZE    WCI   3
RIVERTON       LGT SNOW  11   6  81 E12       30.09R WCI  -3
CASPER         FAIR       8   0  69 NE14      30.13R WCI  -8
DOUGLAS        CLOUDY    10   4  76 E7        30.19R WCI  -1

$$
WYZ021-027>030-104>119-270200-
SOUTHERN WYOMING

CITY           SKY/WX    TMP DP  RH WIND       PRES   REMARKS
EVANSTON       LGT SNOW  24  21  88 E6        29.86R FOG     WCI  17
FORT BRIDGER   LGT SNOW  26  25  96 E5        29.90R WCI  20
ROCK SPRINGS   CLOUDY    13   8  81 NE18      29.92R WCI  -4
DIXON          CLOUDY    24  15  67 N14       29.89S WCI  12
RAWLINS        MOCLDY    12   3  67 E17       29.96R WCI  -5
SARATOGA       CLOUDY    18   9  68 NW8       29.91R WCI   7
LARAMIE        CLOUDY     8   0  69 SE20      29.95R WCI -11
CHEYENNE       LGT SNOW   9   4  80 E8        30.08R VSB 1   WCI  -3
TORRINGTON     CLOUDY    12   3  67 E8        30.25R WCI   0
PINE BLUFFS    FLURRIES  12   9  85 E9        30.17S WCI   0

$$



USA.gov is the U.S. government's official web portal to all federal, state and local government web resources and services.